Weather History for Sidney, NE

Change the Weather History Date:

Sunday, July 7, 2013

  Actual Average Record
Temperature  
Mean Temperature 77 °F 75 °F  
Max Temperature 93 °F 90 °F 103 °F (1985)
Min Temperature 60 °F 59 °F 42 °F (1952)
Degree Days  
Heating Degree Days 0 0  
Month to date heating degree days 0 0  
Since 1 June heating degree days 37 59  
Since 1 July heating degree days 0 0  
Cooling Degree Days 12 10  
Month to date cooling degree days 54 63  
Year to date cooling degree days 255 222  
Since 1 June cooling degree days 222 200  
Growing Degree Days 28 (Base 50)    
Moisture  
Dew Point 55 °F    
Average Humidity 52    
Maximum Humidity 78    
Minimum Humidity 26    
Precipitation  
Precipitation T in 0.08 in 0.85 in (2003)
Month to date precipitation 0.22 0.63  
Year to date precipitation 6.25 10.57  
Sea Level Pressure  
Sea Level Pressure 29.90 in    
Wind  
Wind Speed 8 mph (NNE)    
Max Wind Speed 31 mph    
Max Gust Speed 38 mph    
Visibility 10 miles    
Events Rain , Thunderstorm    
T = Trace of Precipitation, MM = Missing Value Source: NWS Daily Summary

Daily Weather History Graph

Daily Weather History Graph

Search for Another Location

Airport:

Trip Planner

Search our weather history database for the weather conditions in past years. The results will help you decide how hot, cold, wet, or windy it might be!

Date:

Astronomy

Jul. 07, 2013 Rise Set
Actual Time 5:26 AM MDT 8:26 PM MDT
Civil Twilight 4:53 AM MDT 8:59 PM MDT
Nautical Twilight 4:11 AM MDT 9:41 PM MDT
Astronomical Twilight 3:22 AM MDT 10:31 PM MDT
Moon 5:05 AM MDT (7/7) 7:51 PM MDT (7/7)
Length of Visible Light 16h 06m
Length of Day
14h 59m
Waning Crescent, 0% of the Moon is Illuminated
Jul 7
Waning Crescent
Jul 8
New
Jul 15
First Quarter
Jul 22
Full
Jul 29
Last Quarter

Hourly Weather History & Observations

Time (MDT) Temp. Heat Index Dew Point Humidity Pressure Visibility Wind Dir Wind Speed Gust Speed Precip Events Conditions
12:53 AM 70.0 °F - 54.0 °F 57% 29.81 in 10.0 mi North 9.2 mph - N/A   Clear
1:53 AM 70.0 °F - 57.0 °F 63% 29.81 in 10.0 mi NE 10.4 mph - N/A   Clear
2:53 AM 66.9 °F - 57.9 °F 73% 29.83 in 10.0 mi NE 8.1 mph - N/A   Clear
3:53 AM 66.0 °F - 57.9 °F 75% 29.84 in 10.0 mi North 11.5 mph - N/A   Clear
4:53 AM 66.0 °F - 57.9 °F 75% 29.85 in 10.0 mi NNE 11.5 mph - N/A   Clear
5:53 AM 64.0 °F - 55.9 °F 75% 29.88 in 10.0 mi NNW 10.4 mph - N/A   Clear
6:53 AM 66.9 °F - 55.0 °F 66% 29.86 in 10.0 mi NNE 6.9 mph - N/A   Clear
7:53 AM 73.0 °F - 55.9 °F 55% 29.87 in 10.0 mi Variable 3.5 mph - N/A   Clear
8:53 AM 75.0 °F - 57.0 °F 53% 29.91 in 10.0 mi NNE 9.2 mph - N/A   Clear
9:53 AM 77.0 °F - 55.0 °F 47% 29.91 in 10.0 mi North 13.8 mph 19.6 mph N/A   Clear
10:53 AM 81.0 °F 80.8 °F 55.9 °F 42% 29.93 in 10.0 mi NE 13.8 mph - N/A   Clear
11:53 AM 82.9 °F 82.4 °F 57.0 °F 41% 29.92 in 10.0 mi ENE 13.8 mph 20.7 mph N/A   Clear
12:53 PM 87.1 °F 85.9 °F 57.0 °F 36% 29.89 in 10.0 mi East 6.9 mph 17.3 mph N/A   Clear
1:53 PM 89.1 °F 87.3 °F 55.9 °F 32% 29.87 in 10.0 mi Variable 5.8 mph - N/A   Clear
2:53 PM 90.0 °F - 52.0 °F 27% 29.86 in 10.0 mi Calm Calm - N/A   Clear
3:53 PM 91.0 °F - 52.0 °F 26% 29.84 in 10.0 mi Variable 3.5 mph 21.9 mph N/A   Clear
4:53 PM 89.1 °F - 50.0 °F 26% 29.83 in 10.0 mi Calm Calm - N/A   Clear
5:36 PM 87.8 °F 85.7 °F 53.6 °F 31% 30.03 in 10.0 mi NNW 6.9 mph - N/A Thunderstorm Clear
5:51 PM 86.0 °F - 51.8 °F 31% 30.04 in 10.0 mi NW 10.4 mph - N/A   Scattered Clouds
5:53 PM 86.0 °F - 52.0 °F 31% 29.87 in 10.0 mi NW 11.5 mph - N/A   Scattered Clouds
6:07 PM 80.6 °F 80.5 °F 55.4 °F 42% 30.04 in 9.0 mi WNW 18.4 mph 27.6 mph 0.00 in Rain , Thunderstorm Light Rain
6:53 PM 73.9 °F - 54.0 °F 50% 29.86 in 10.0 mi SSE 12.7 mph - 0.00 in Thunderstorm Mostly Cloudy
7:19 PM 78.8 °F - 51.8 °F 39% 30.01 in 10.0 mi SSE 5.8 mph - N/A   Clear
7:53 PM 71.1 °F - 55.9 °F 59% 29.88 in 10.0 mi South 13.8 mph 19.6 mph N/A   Clear
8:53 PM 68.0 °F - 55.0 °F 63% 29.86 in 10.0 mi SW 8.1 mph - N/A   Clear
9:53 PM 66.9 °F - 55.0 °F 66% 29.92 in 10.0 mi East 10.4 mph - N/A   Clear
10:53 PM 64.0 °F - 54.0 °F 70% 29.93 in 10.0 mi East 8.1 mph - N/A   Clear
11:53 PM 62.1 °F - 55.0 °F 78% 29.95 in 10.0 mi South 3.5 mph - N/A   Clear